Tracking 27126 objects as of 30-Mar-2023
HD Live streaming from Space Station
objects crossing your sky now

ORBCOMM FM 107

Track ORBCOMM FM 107 now!
10-day predictions
ORBCOMM FM 107 is classified as:


NORAD ID: 40087
Int'l Code: 2014-040B
Perigee: 713.1 km
Apogee: 716.0 km
Inclination: 47.0 °
Period: 98.9 minutes
Semi major axis: 7085 km
RCS: Unknown
Launch date: July 14, 2014
Source: United States (US)
Launch site: AIR FORCE EASTERN TEST RANGE (AFETR)
Your satellite tracking list
Your tracking list is empty




NASA's NSSDC Master Catalog

Two Line Element Set (TLE):
1 40087U 14040B   23088.80058372  .00001764  00000-0  43828-3 0  9998
2 40087  47.0052 235.7173 0002048 183.3289 176.7582 14.55587946462984
Source of the keplerian elements: AFSPC